Overview Statistics Trail Chart Weather Telemetry Raw packets
 

This is the latest recevied weather packets stored in our database for station/object KN4AN. If no packets are shown the sender has not sent any weather packets the latest 10 day(s).

<< 1 2 3 4 5 6 >>
Time Temp. Humidity Pressure Rain* Wind** Luminosity Snow
1788563204 30° C 51% 1014.4 hPa 0 mm - 22 W/m² -
1788562900 30.56° C 51% 1014.6 hPa 0 mm - 31 W/m² -
1788562598 31.67° C 48% 1014.7 hPa 0 mm - 48 W/m² -
1788562292 32.22° C 46% 1014.5 hPa 0 mm - 46 W/m² -
1788561987 33.33° C 44% 1014.5 hPa 0 mm - 44 W/m² -
1788561681 33.33° C 47% 1014.4 hPa 0 mm - 36 W/m² -
1788561381 33.89° C 48% 1014.3 hPa 0 mm - 46 W/m² -
1788561076 33.89° C 48% 1014.2 hPa 0 mm - 49 W/m² -
1788560772 33.89° C 48% 1014.3 hPa 0 mm - 45 W/m² -
1788560468 33.89° C 48% 1014.3 hPa 0 mm - 40 W/m² -
1788560167 34.44° C 47% 1014.3 hPa 0 mm - 42 W/m² -
1788559867 34.44° C 46% 1014.1 hPa 0 mm - 58 W/m² -
1788559562 34.44° C 46% 1013.9 hPa 0 mm - 74 W/m² -
1788559258 35° C 46% 1014 hPa 0 mm - 84 W/m² -
1788558958 35° C 46% 1013.9 hPa 0 mm - 78 W/m² -
1788558654 35° C 45% 1014 hPa 0 mm - 70 W/m² -
1788558349 35° C 44% 1014 hPa 0 mm - 74 W/m² -
1788558044 35.56° C 44% 1013.8 hPa 0 mm - 85 W/m² -
1788557742 35.56° C 43% 1013.8 hPa 0 mm - 58 W/m² -
1788557440 36.11° C 42% 1013.7 hPa 0 mm - 91 W/m² -
1788557138 36.11° C 42% 1013.8 hPa 0 mm - 174 W/m² -
1788556834 36.11° C 41% 1013.7 hPa 0 mm - 148 W/m² -
1788556533 36.67° C 41% 1013.5 hPa 0 mm - 173 W/m² -
1788556229 36.67° C 39% 1013.6 hPa 0 mm - 250 W/m² -
1788555928 36.67° C 40% 1013.9 hPa 0 mm - 228 W/m² -

* Rain latest hour (hover to see other rain measurements)
** Current wind speed in m/s (hover to see current wind gust speed)